Terminal Aerodrome Forecast
Issued by NWS Wilmington, OH

Current Version | Previous Version | Text Only | Print | Product List | Glossary Off
Versions: 1 2 3 4 5 6 7 8 9 10 11 12 13 14 15 16 17 18 19 20 21 22 23 24 25 26 27 28 29

000
FTUS41 KILN 240900 AAA
TAFCVG
TAF AMD
KCVG 240900Z 2409/2512 00000KT P6SM BKN200
     FM241500 25005KT P6SM FEW050 SCT100
     FM242300 23003KT P6SM SCT035
     FM250900 21006KT P6SM BKN035=

USA.gov is the U.S. government's official web portal to all federal, state and local government web resources and services.